Regional Weather Roundup
Issued by NWS Wakefield, VA

Home | Current Version | Previous Version | Graphics & Text | Print | Product List | Glossary On
Versions: 1 2 3 4 5 6 7 8 9 10 11 12 13 14 15 16 17 18 19 20 21 22 23 24 25 26 27 28 29 30 31 32 33 34 35 36 37 38 39 40 41 42 43 44 45 46 47 48 49 50
000
ASUS41 KAKQ 300615
RWRAKQ

REGIONAL WEATHER ROUNDUP
NATIONAL WEATHER SERVICE WAKEFIELD VA
200 AM EDT SAT APR 30 2016

Note: "fair" indicates few or no clouds below 12,000 feet with no
significant weather and/or obstructions to visibility. * = Denotes
station may not report precipitation (e.g., rain,snow,etc.),
thunder or fog.

VAZ042-051-052>054-056-300700-
NORTHERN VIRGINIA

CITY           SKY/WX    TMP DP  RH WIND       PRES   REMARKS
WASH NATIONAL  CLOUDY    52  50  93 E6        30.13S
DULLES         CLOUDY    52  49  89 E3        30.12S
FORT BELVOIR   CLOUDY    52  50  93 VRB2      30.12F
QUANTICO       CLOUDY    54  51  90 E8        30.12F
FREDERICKSBRG* CLOUDY    54  54 100 CALM      30.11S
STAFFORD*      CLOUDY    52  49  90 E3        30.15F
WARRENTON      CLOUDY    53  48  84 E3        30.11S HAZE
CULPEPER*      CLOUDY    53  53  99 CALM      30.12S FOG
MANASSAS*      CLOUDY    54  54 100 CALM      30.12S
LEESBURG*      CLOUDY    52  52 100 CALM      30.13S FOG
WINCHESTER     CLOUDY    52  50  93 CALM      30.12R FOG
FRONT ROYAL*   CLOUDY    52  50  93 N3        30.10S
LURAY*         CLOUDY    52  52 100 CALM      30.10S FOG
$$

VAZ048-049-060>072-079>083-300700-
CENTRAL AND SOUTH CENTRAL VIRGINIA

CITY           SKY/WX    TMP DP  RH WIND       PRES   REMARKS
RICHMOND       CLOUDY    53  52  96 NE6       30.10S
CHESTERFIELD*  CLOUDY    55  43  62 NE5       30.12R
PETERSBURG*    CLOUDY    56  56 100 N6        30.10S
HANOVER        CLOUDY    53  50  89 NE6       30.12S
TAPPAHANNOCK*  CLOUDY    54  53  98 CALM      30.12S
QUINTON*       CLOUDY    53  52  98 NE6       30.11R
CHARLOTTSVILLE CLOUDY    54  51  90 NE3       30.11S FOG
GORDONSVILLE*  CLOUDY    53  53 100 CALM      30.10F FOG
ORANGE*        CLOUDY    54  54 100 CALM      30.12F FOG
LOUISA*        CLOUDY    55  55 100 CALM      30.10S FOG
BUMPASS*       CLOUDY    52  51  97 CALM      30.11S
FARMVILLE*     CLOUDY    56  56 100 N3        30.09S FOG
CREWE*         CLOUDY    55  55 100 CALM      30.09S
FORT PICKETT*  NOT AVBL
CHASE CITY*    CLOUDY    58  56  94 NE5       30.08S
CLARKSVILLE*   CLOUDY    59  57  94 NE6       30.07S
SOUTH HILL*    CLOUDY    56  55  94 N5        30.13S
LAWRENCEVILLE* CLOUDY    56  56  98 NE3       30.08S
EMPORIA*       CLOUDY    55  55 100 N7        30.10S
$$

VAZ088>098-300700-
SOUTHEAST VIRGINIA

CITY           SKY/WX    TMP DP  RH WIND       PRES   REMARKS
NORFOLK        CLOUDY    55  52  89 N13       30.07S
VIRGINIA BEACH CLOUDY    57  52  83 N9        30.07R
NORFOLK NAVAL  DRIZZLE   56  53  90 N12       30.10R FOG
WEST POINT*    CLOUDY    54  52  93 CALM      30.12S
SALUDA*        CLOUDY    53  51  95 N6        30.11R
NEWPORT NEWS   CLOUDY    55  53  93 N7        30.10R
LANGLEY AFB    CLOUDY    55  54  96 NE8       30.08R
FORT EUSTIS    CLOUDY    55  55  99 N5        30.08S
WILLIAMSBURG*  MOCLDY    55  54  94 CALM      30.11R
HR EXEC AP*    CLOUDY    55  54  94 NE3       30.11R
FRANKLIN*      CLOUDY    55  53  93 N6        30.09S
US460-WAKEFLD  CLOUDY    56  52  86 CALM      30.10S
$$

VAZ020-022-025-037-045-300700-
WEST CENTRAL AND SOUTHWEST VIRGINIA

CITY           SKY/WX    TMP DP  RH WIND       PRES   REMARKS
STAUNTON*      CLOUDY    55  55  99 CALM      30.11F FOG
WAYNESBORO*    CLOUDY    53  51  94 MISG      30.10S
HOT SPRINGS VA FOG       51  51 100 SE3       30.10S VSB<1/4
LYNCHBURG      CLOUDY    54  54 100 NE7       30.10S FOG
DANVILLE       CLOUDY    59  32  36 E7        30.07R
SOUTH BOSTON*  CLOUDY    59  57  95 NE6       30.07S
MARTINSVILLE   CLOUDY    58  55  88 E8        30.09R
ROANOKE        CLOUDY    58  55  90 SE7       30.09F
BLACKSBURG     FAIR      57  56  97 E7        30.10S
DUBLIN*        FAIR      62  51  66 N6        30.08S
MARION*        FAIR      62  48  60 W3        30.10R
HILLSVILLE*    FAIR      63  47  57 CALM      30.07S
RICHLANDS*     FAIR      61  32  33 CALM      30.08F
WISE*          FAIR      59  43  55 CALM      30.08F
ABINGDON*      FAIR      61  54  76 CALM      30.05F
$$

MDZ021>025-VAZ099-100-300700-
SOUTHERN MARYLAND AND THE DELMARVA PENINSULA

CITY           SKY/WX    TMP DP  RH WIND       PRES   REMARKS
PATUXENT RIVER CLOUDY    52  48  86 NE8       30.12R
BAY BRIDGE APT NOT AVBL
LEONARDTOWN    CLOUDY    50  46  87 CALM      30.12S
DOVER          CLOUDY    48  48 100 N8        30.12F
GEORGETOWN     CLOUDY    49  47  93 NE9       30.12S
EASTON         PTCLDY   N/A N/A N/A E8        30.15F
CAMBRIDGE      CLOUDY    48  46  93 NE7       30.11F
SALISBURY      CLOUDY    50  48  93 N7        30.12R
OCEAN CITY     CLOUDY    50  48  93 NE10      30.10S
WALLOPS ISLAND CLOUDY    51  49  92 N8        30.11R
ACCOMACK*      CLOUDY    50  41  71 N6        30.10R
$$

NCZ012>017-030>032-300700-
NORTH CENTRAL AND EASTERN NORTH CAROLINA

CITY           SKY/WX    TMP DP  RH WIND       PRES   REMARKS
ROANOKE RAPIDS CLOUDY    57  55  94 NE8       30.07R
RALEIGH        CLOUDY    60  58  92 NE8       30.05R
ELIZABETH CITY CLOUDY    55  53  93 N12       30.06S
AHOSKIE*       CLOUDY    56  54  92 N6        30.08R
EDENTON*       CLOUDY    57  57 100 NE6       30.07S
CURRITUCK*     CLOUDY    55  55  97 N8        30.07S
KILL DEVIL HLS CLOUDY    54  54  98 N7        30.04S FOG
MANTEO         NOT AVBL
CAPE HATTERAS  CLOUDY    57  55  93 E7        30.03S
TARBORO*       CLOUDY    60  58  94 CALM      30.08R
GOLDSBORO      CLEAR     59  59 100 N5        30.03R
WASHINGTON     CLOUDY    58  57  94 NE6       30.05S
GREENVILLE     CLOUDY    59  59 100 NE8       30.06F
NEW BERN       CLOUDY    62  58  86 E6        30.04R
WILMINGTON     PTCLDY    61  60  97 NE3       30.00F
$$

VAZ048-300700-
ELSEWHERE

CITY           SKY/WX    TMP DP  RH WIND       PRES   REMARKS
HARRISBURG PA  CLOUDY    47  44  90 E6        30.14S FOG
BALTIMORE      CLOUDY    50  48  93 NE6       30.12F
ANNAPOLIS      CLOUDY    51  48  89 MISG      30.12S
ANDREWS AFB    CLOUDY    50  49  95 NE5       30.11S
PHILADELPHIA   CLOUDY    47  41  80 NE9       30.16F
HENDERSON NC   CLOUDY    58  58 100 NE5       30.07S
GREENSBORO     MOCLDY    63  60  90 NE13      30.02S
ROCKY MOUNT    CLOUDY    59  58  96 NE6       30.06S
$$

VAZ100-300700-
MARINE

STATION/POSITION TIME  TEMP    WIND        PRES    WAVE   SWELL
                       AIR SEA DIR/SP/G            HT/PER HT/PER
                 (UTC) (F)     (DEG/KT/KT) (MB)    (FT/S) (FT/S)
BRANDYWINE LGT   0500   49      30/ 14/ 15 1020.1R
CAPE MAY NJ      0500   49 57   10/  3/  5 1019.6R
LEWES DE         0500   49 54   30/  9/ 10 1019.7R
15NM E FENWICK I 0550   50 51              1018.6R   7/ 8
OCEAN-CITY-INLET 0500   50 54   20/ 10/ 17 1018.6R
WACHAPREAGUE VA  0500   51 58   10/  4/  5 1018.4R
THOMAS POINT MD  0600   51 57   60/ 11/ 12 1021.3F
GOOSES REEF MD   0600   52 57   60/  8/ 10 1020.8S   1/ 2
COVE POINT MD    0500   51      80/  7/  9 1020.3R
SOLOMONS ISLAND  0500   52 59   30/  5/  7   N/A
BISHOPS HEAD MD  0500   52 58   30/ 10/ 12 1018.8R
PINEY POINT MD   0500           60/  4/  5   N/A
POTOMAC MD       0600   53 58   40/  8/ 10 1018.8R   1
CAMBRIDGE MD     0500   51 60   40/ 10/ 12 1018.9R
LEWISETTA VA     0500   53 60   40/  7/ 10 1019.1R
RAPPAHANNOCK LGT 0500           10/ 12/ 14 1019.2R
STINGRAY PT      0600   54 60   30/ 12/ 14 1019.5R   2/ 3
YORK RVR RNG VA  0500   55      30/ 13/ 14 1018.2R
YORKTOWN VA      0500   56 62   10/ 10/ 12 1018.5R
JAMESTOWN VA     0600   55 66   10/  6/  8   N/A     0
DOMINION TERM VA 0500   56      50/  4/ 11 1018.4R
KIPTOPEKE VA     0500      59   30/  5/  7   N/A
CHES BAY BRIDGE  0500   55 60   20/ 10/ 12 1018.0R
CAPE HENRY VA    0500   54      30/ 15/ 17   N/A
CHESAPEAKE LGHT  0500   53      20/ 15/ 15 1018.7R
WILLOUBY STN VA  0500   55      30/ 12/ 14 1019.4R
CAPE HENRY BUOY  0512      56                N/A     4/ 8   2/11
CAPE CHARLES BUO 0526      56                N/A     5/ 8   5/ 8
OFFSHORE WE BUOY 0521      53                N/A     5/ 8   5/ 8
64NM E OF VA BCH 0550   53 53  360/ 16/ 19 1016.8R   6/11   5/11
DUCK PIER NC     0500   54 66   20/ 14/ 15 1017.2R
44100 DUCK FRF   0524      57                N/A     5/ 8   2/11
44056 DUCK FRF   0511      58                N/A     4/10   2/11
OREGON INLET NC  0500   55 63   10/ 10/ 14 1017.0F
HATTERAS NC      0500   59 71   30/ 10/ 13 1016.4R
DIAMOND SHLS NC  0550   60 74   30/ 14/ 17 1016.7S   4/ 8   3/ 8
CAPE LOOKOUT NC  0600   65      70/ 10/ 11 10C1F1C2F2C3F3C4F4C5F5C6F6C7F7C8M1C9!


USA.gov is the U.S. government's official web portal to all federal, state and local government web resources and services.